Marrakech, Morocco

2:36 PM WET on February 08, 2016 (GMT +0000)
Menara

Weather History for GMMX - April, 2012

Change the Weather History Date:

Monday, April 23, 2012

  Actual Average Record
Temperature  
Mean Temperature 66 °F -  
Max Temperature 79 °F 80 °F 95 °F (2009)
Min Temperature 53 °F 56 °F 50 °F (2006)
Cooling Degree Days 1    
Growing Degree Days 16 (Base 50)    
Moisture  
Dew Point 48 °F    
Average Humidity 55    
Maximum Humidity 88    
Minimum Humidity 15    
Precipitation  
Precipitation 0.00 in 0.04 in - ()
Sea Level Pressure  
Sea Level Pressure 30.08 in    
Wind  
Wind Speed 7 mph ()    
Max Wind Speed 16 mph    
Max Gust Speed -    
Visibility 6.2 miles    
Events      
Averages and records for this station are not official NWS values.
T = Trace of Precipitation, MM = Missing Value Source: Averaged Metar Reports

Daily Weather History Graph

Daily Weather History Graph

Search for Another Location

Airport or City:

Trip Planner

Search our weather history database for the weather conditions in past years. The results will help you decide how hot, cold, wet, or windy it might be!

Date:

Astronomy

Apr. 23, 2012 Rise Set
Actual Time 5:54 AM WET 7:06 PM WET
Civil Twilight 5:29 AM WET 7:32 PM WET
Nautical Twilight 4:58 AM WET 8:02 PM WET
Astronomical Twilight 4:27 AM WET 8:33 PM WET
Moon 7:03 AM WET (4/23) 9:16 PM WET (4/23)
Length of Visible Light 14h 03m
Length of Day
13h 12m
Waxing Crescent, 4% of the Moon is Illuminated
Apr 23
Waxing Crescent
Apr 29
First Quarter
May 6
Full
May 12
Last Quarter
May 21
New

Hourly Weather History & Observations

Time (WET) Temp. Dew Point Humidity Pressure Visibility Wind Dir Wind Speed Gust Speed Precip Events Conditions
12:00 AM 61 °F 48 °F 52% 30.12 in 6 mi NE 10.4 mph - -  
12:00 AM 60.8 °F 48.2 °F 63% 30.12 in - NE 9.2 mph - N/A   Clear
12:30 AM 60.8 °F 48.2 °F 63% 30.12 in - NE 8.1 mph - N/A   Clear
1:00 AM 59.0 °F 48.2 °F 67% 30.12 in - NNE 6.9 mph - N/A   Clear
1:30 AM 59.0 °F 48.2 °F 67% 30.12 in - NNE 6.9 mph - N/A   Clear
2:00 AM 57.2 °F 48.2 °F 72% 30.12 in - NNE 3.5 mph - N/A   Clear
2:30 AM 57.2 °F 48.2 °F 72% 30.12 in - NE 3.5 mph - N/A   Clear
3:00 AM 56 °F 49 °F 69% 30.11 in 6 mi ENE 2.3 mph - -  
3:00 AM 55.4 °F 48.2 °F 77% 30.09 in - Variable 2.3 mph - N/A   Clear
3:30 AM 55.4 °F 50.0 °F 82% 30.09 in - East 4.6 mph - N/A   Clear
4:00 AM 55.4 °F 50.0 °F 82% 30.09 in - NE 3.5 mph - N/A   Clear
4:30 AM 55.4 °F 50.0 °F 82% 30.09 in - NNE 5.8 mph - N/A   Clear
5:00 AM 55.4 °F 50.0 °F 82% 30.09 in - NNE 4.6 mph - N/A   Clear
5:30 AM 53.6 °F 50.0 °F 88% 30.09 in - NE 6.9 mph - N/A   Clear
6:00 AM 53.6 °F 50.0 °F 88% 30.09 in - NE 6.9 mph - N/A   Clear
6:30 AM 53.6 °F 48.2 °F 82% 30.12 in - NE 8.1 mph - N/A   Clear
7:00 AM 55.4 °F 50.0 °F 82% 30.12 in - ENE 6.9 mph - N/A   Clear
7:30 AM 55.4 °F 50.0 °F 82% 30.12 in - NE 6.9 mph - N/A   Clear
8:00 AM 57.2 °F 50.0 °F 77% 30.12 in - NE 5.8 mph - N/A   Clear
8:30 AM 59.0 °F 50.0 °F 72% 30.09 in - East 6.9 mph - N/A   Clear
9:00 AM 61 °F 51 °F 60% 30.10 in 6 mi ENE 6.9 mph - -  
9:00 AM 60.8 °F 51.8 °F 72% 30.12 in - ENE 6.9 mph - N/A   Clear
9:30 AM 62.6 °F 51.8 °F 68% 30.12 in - East 5.8 mph - N/A   Clear
10:00 AM 64.4 °F 51.8 °F 64% 30.12 in - NE 6.9 mph - N/A   Clear
10:30 AM 66.2 °F 53.6 °F 64% 30.12 in - Variable 5.8 mph - N/A   Clear
11:00 AM 68.0 °F 53.6 °F 60% 30.12 in - NE 8.1 mph - N/A   Clear
11:30 AM 69.8 °F 50.0 °F 49% 30.09 in 6.2 mi NNE 8.1 mph - N/A   Unknown
12:00 PM 71 °F 52 °F 41% 30.04 in 6 mi ENE 5.8 mph - -   Scattered Clouds
12:00 PM 71.6 °F 51.8 °F 50% 30.09 in 6.2 mi East 4.6 mph - N/A   Partly Cloudy
12:30 PM 73.4 °F 50.0 °F 44% 30.09 in 6.2 mi Variable 6.9 mph - N/A   Partly Cloudy
1:00 PM 73.4 °F 50.0 °F 44% 30.06 in 6.2 mi Variable 6.9 mph - N/A   Partly Cloudy
1:30 PM 75.2 °F 46.4 °F 36% 30.06 in 6.2 mi NE 8.1 mph - N/A   Partly Cloudy
2:00 PM 77.0 °F 42.8 °F 29% 30.06 in 6.2 mi NE 10.4 mph - N/A   Partly Cloudy
2:30 PM 77.0 °F 42.8 °F 29% 30.04 in 6.2 mi NNE 6.9 mph - N/A   Partly Cloudy
3:00 PM 78 °F 42 °F 17% 29.97 in 6 mi NNE 6.9 mph - -   Scattered Clouds
3:00 PM 78.8 °F 41.0 °F 26% 30.04 in 6.2 mi Variable 8.1 mph - N/A   Unknown
3:30 PM 78.8 °F 42.8 °F 28% 30.04 in 6.2 mi East 8.1 mph - N/A   Partly Cloudy
4:00 PM 78.8 °F 39.2 °F 24% 30.04 in 6.2 mi NE 9.2 mph - N/A   Partly Cloudy
4:30 PM 78.8 °F 41.0 °F 26% 30.04 in 6.2 mi East 8.1 mph - N/A   Partly Cloudy
5:00 PM 78.8 °F 39.2 °F 24% 30.04 in 6.2 mi NE 6.9 mph - N/A   Partly Cloudy
5:30 PM 78.8 °F 39.2 °F 24% 30.01 in 6.2 mi East 5.8 mph - N/A   Partly Cloudy
6:00 PM 79 °F 39 °F 15% 29.95 in 6 mi ENE 6.9 mph - -   Scattered Clouds
6:00 PM 78.8 °F 39.2 °F 24% 30.01 in 6.2 mi ENE 6.9 mph - N/A   Partly Cloudy
6:30 PM 78.8 °F 37.4 °F 23% 30.01 in 6.2 mi NE 6.9 mph - N/A   Partly Cloudy
7:00 PM 77.0 °F 37.4 °F 24% 30.01 in 6.2 mi NE 5.8 mph - N/A   Partly Cloudy
7:30 PM 75.2 °F 48.2 °F 38% 30.04 in 6.2 mi NNE 10.4 mph - N/A   Partly Cloudy
8:00 PM 71.6 °F 50.0 °F 46% 30.04 in 6.2 mi NNE 16.1 mph - N/A   Partly Cloudy
8:30 PM 69.8 °F 51.8 °F 53% 30.06 in 6.2 mi NNE 15.0 mph - N/A   Partly Cloudy
9:00 PM 68.0 °F 51.8 °F 56% 30.06 in 6.2 mi NNE 12.7 mph - N/A   Partly Cloudy
9:30 PM 66.2 °F 51.8 °F 60% 30.06 in 6.2 mi NNE 11.5 mph - N/A   Partly Cloudy
10:00 PM 64.4 °F 51.8 °F 64% 30.09 in 6.2 mi NNE 10.4 mph - N/A   Partly Cloudy
10:30 PM 64.4 °F 51.8 °F 64% 30.09 in 6.2 mi NE 9.2 mph - N/A   Partly Cloudy
11:00 PM 62.6 °F 51.8 °F 68% 30.09 in - ENE 8.1 mph - N/A   Clear
11:30 PM 62.6 °F 51.8 °F 68% 30.09 in - NE 8.1 mph - N/A   Clear